Location: Arborea
(39.7744°N, 8.5819°E)
Time: 06:22:14
(UTC+00:00)

BREEZE-M R/B - Pass Details

Date: 24 October 2021
Orbit: 595 x 26571 km, 48.9° (Epoch: 02 December)

Event Time Altitude Azimuth Distance (km) Brightness Sun altitude
Rises 18:06:12 0° 302° (WNW) 2,956 7.0 -18.4°
Maximum altitude 18:11:37 40° 25° (NNE) 1,005 3.4 -19.5°
Enters shadow 18:12:39 35° 59° (ENE) 1,218 3.6 -19.7°
